Weather History for Marianna, FL

Change the Weather History Date:

Sunday, December 29, 2013

  Actual Average Record
Temperature  
Mean Temperature 51 °F 50 °F  
Max Temperature 59 °F 61 °F 73 °F (2006)
Min Temperature 42 °F 39 °F 28 °F (2010)
Degree Days  
Heating Degree Days 14    
Month to date heating degree days 273  
Since 1 July heating degree days 532  
Cooling Degree Days 0    
Month to date cooling degree days 47  
Year to date cooling degree days 2532  
Growing Degree Days 2 (Base 50)    
Moisture  
Dew Point 51 °F    
Average Humidity 85    
Maximum Humidity 93    
Minimum Humidity 77    
Precipitation  
Precipitation 0.33 in 0.11 in 1.12 in (2007)
Month to date precipitation 4.45 3.68  
Year to date precipitation 63.09 53.35  
Sea Level Pressure  
Sea Level Pressure 29.97 in    
Wind  
Wind Speed 6 mph (NW)    
Max Wind Speed 15 mph    
Max Gust Speed 21 mph    
Visibility 9 miles    
Events Rain    
T = Trace of Precipitation, MM = Missing Value Source: NWS Daily Summary

Daily Weather History Graph

Daily Weather History Graph

Search for Another Location

Airport:

Trip Planner

Search our weather history database for the weather conditions in past years. The results will help you decide how hot, cold, wet, or windy it might be!

Date:

Astronomy

Dec. 29, 2013 Rise Set
Actual Time 6:37 AM CST 4:48 PM CST
Civil Twilight 6:11 AM CST 5:14 PM CST
Nautical Twilight 5:41 AM CST 5:44 PM CST
Astronomical Twilight 5:11 AM CST 6:14 PM CST
Moon 3:26 AM CST (12/29) 2:21 PM CST (12/29)
Length of Visible Light 11h 03m
Length of Day
10h 10m
Waning Crescent, 11% of the Moon is Illuminated
Dec 29
Waning Crescent
Jan 1
New
Jan 7
First Quarter
Jan 15
Full
Jan 23
Last Quarter

Hourly Weather History & Observations

Time (CST) Temp. Dew Point Humidity Pressure Visibility Wind Dir Wind Speed Gust Speed Precip Events Conditions
12:08 AM 55.4 °F 53.6 °F 94% 29.88 in 2.5 mi NNW 5.8 mph - 0.08 in Rain Rain
12:21 AM 55.4 °F 55.4 °F 100% 29.86 in 1.8 mi East 3.5 mph - 0.24 in Rain Heavy Rain
12:23 AM 55.4 °F 55.4 °F 100% 29.86 in 2.0 mi ENE 3.5 mph - 0.26 in Rain Heavy Rain
12:37 AM 55.4 °F 55.4 °F 100% 29.85 in 5.0 mi East 4.6 mph - 0.31 in Rain Light Rain
12:49 AM 55.4 °F 55.4 °F 100% 29.85 in 10.0 mi Calm Calm - 0.31 in Rain Light Rain
12:53 AM 55.9 °F 55.0 °F 97% 29.86 in 10.0 mi Calm Calm - 0.31 in   Overcast
1:21 AM 55.4 °F 55.4 °F 100% 29.84 in 10.0 mi East 8.1 mph - 0.02 in Rain Light Rain
1:53 AM 57.0 °F 55.0 °F 93% 29.82 in 10.0 mi Calm Calm - 0.02 in   Scattered Clouds
2:33 AM 57.2 °F 55.4 °F 94% 29.85 in 10.0 mi West 6.9 mph - N/A   Overcast
2:40 AM 57.2 °F 55.4 °F 94% 29.87 in 10.0 mi WSW 6.9 mph - N/A   Overcast
2:53 AM 57.0 °F 55.9 °F 96% 29.86 in 4.0 mi WSW 3.5 mph - N/A   Overcast
3:12 AM 59.0 °F 57.2 °F 94% 29.89 in 4.0 mi West 13.8 mph 20.7 mph N/A   Overcast
3:53 AM 57.0 °F 55.9 °F 96% 29.88 in 10.0 mi West 4.6 mph - N/A   Overcast
4:53 AM 55.9 °F 54.0 °F 93% 29.91 in 10.0 mi WNW 8.1 mph - N/A   Overcast
5:53 AM 54.0 °F 52.0 °F 93% 29.92 in 10.0 mi WNW 5.8 mph - 0.00 in   Overcast
6:53 AM 53.1 °F 51.1 °F 93% 29.97 in 10.0 mi WNW 9.2 mph - N/A   Overcast
7:41 AM 53.6 °F 50.0 °F 88% 29.99 in 10.0 mi NW 5.8 mph - N/A   Scattered Clouds
7:53 AM 53.1 °F 51.1 °F 93% 29.99 in 10.0 mi NW 4.6 mph - N/A   Scattered Clouds
8:02 AM 53.6 °F 51.8 °F 94% 30.00 in 10.0 mi NW 4.6 mph - N/A   Mostly Cloudy
8:53 AM 54.0 °F 50.0 °F 86% 30.03 in 10.0 mi NW 6.9 mph - N/A   Overcast
9:04 AM 53.6 °F 51.8 °F 94% 30.03 in 10.0 mi NW 8.1 mph - N/A   Overcast
9:39 AM 55.4 °F 50.0 °F 82% 30.03 in 10.0 mi NW 8.1 mph - N/A   Scattered Clouds
9:50 AM 55.4 °F 50.0 °F 82% 30.04 in 10.0 mi NW 8.1 mph - N/A   Mostly Cloudy
9:53 AM 55.9 °F 50.0 °F 80% 30.04 in 10.0 mi NW 6.9 mph - N/A   Mostly Cloudy
10:53 AM 57.0 °F 50.0 °F 77% 30.03 in 10.0 mi NNW 12.7 mph - N/A   Overcast
11:53 AM 57.0 °F 50.0 °F 77% 30.01 in 10.0 mi NW 6.9 mph - N/A   Overcast
12:53 PM 55.0 °F 48.9 °F 80% 29.99 in 10.0 mi NW 8.1 mph - N/A   Overcast
1:53 PM 55.0 °F 48.9 °F 80% 29.99 in 10.0 mi North 9.2 mph - 0.01 in   Overcast
2:53 PM 54.0 °F 48.0 °F 80% 29.99 in 10.0 mi NNW 8.1 mph - N/A   Overcast
3:53 PM 54.0 °F 48.0 °F 80% 30.00 in 10.0 mi NNW 10.4 mph - N/A   Overcast
4:53 PM 53.1 °F 48.0 °F 83% 30.02 in 10.0 mi NNW 6.9 mph - N/A   Overcast
5:53 PM 52.0 °F 46.9 °F 83% 30.04 in 10.0 mi North 5.8 mph - N/A   Overcast
6:53 PM 52.0 °F 46.0 °F 80% 30.06 in 10.0 mi NNW 6.9 mph - N/A   Overcast
7:53 PM 51.1 °F 45.0 °F 80% 30.08 in 10.0 mi NNW 5.8 mph - N/A   Overcast
8:50 PM 48.2 °F 44.6 °F 87% 30.09 in 10.0 mi NW 3.5 mph - N/A   Scattered Clouds
8:53 PM 48.0 °F 44.1 °F 86% 30.09 in 10.0 mi NW 3.5 mph - N/A   Partly Cloudy
9:53 PM 46.9 °F 44.1 °F 90% 30.10 in 10.0 mi Calm Calm - N/A   Clear
10:53 PM 44.1 °F 42.1 °F 93% 30.10 in 6.0 mi Calm Calm - N/A   Clear
11:53 PM 44.1 °F 42.1 °F 93% 30.10 in 8.0 mi Calm Calm - N/A   Clear